Terminal Aerodrome Forecast
Issued by NWS

Home | Current Version | Previous Version | Graphics & Text | Print | Product List | Glossary On
Versions: 1 2 3 4 5 6 7 8 9 10 11 12 13 14 15 16 17 18 19 20 21 22 23 24 25 26
000
FTUS43 KLOT 260530
TAFMDW
TAF
KMDW 260530Z 2606/2706 16010KT P6SM FEW060 BKN150
     FM261200 18012G18KT P6SM BKN040
      TEMPO 2612/2615 5SM -SHRA BKN025
     FM261500 19015G23KT P6SM SCT025 BKN040
     FM262200 18013G19KT 6SM SHRA BKN020 OVC035
      TEMPO 2622/2702 3SM TSRA SCT012 OVC020CB
     FM270200 15010KT 2SM RA BR VCTS SCT008 OVC015CB=

USA.gov is the U.S. government's official web portal to all federal, state and local government web resources and services.